[[{"header":{"parameterUnit":"m.s-1","parameterCategory":1,"la1":30.2991,"la2":30.254,"lo1":-89.0895,"lo2":-89.0444,"dy":0.0017,"dx":0.0017,"nx":28,"ny":28,"refTime":"2025-01-30T09:00:00:Z","depth":0,"parameterNumber":2,"parameterNumberName":"U-component_of_WINDS"},"data":[0,0,0,0,0,0,0,0,0,0,0,0,0,0,0,0,0,0,0,0,0,0,0,0,0,0,0,0,0,0,0,0,0,0,0,0,0,0,0,0,0,0,0,0,0,0,0,0,0,0,0,0,0,0,0,0,0,0,4.2546,4.2545,0,4.2447,4.2446,4.2445,4.2355,4.2353,4.2352,4.2351,4.225,4.2248,4.2247,0,0,0,0,0,0,0,0,0,0,0,0,0,4.266,4.2658,4.2546,4.2544,4.2543,4.2447,4.2446,4.2445,4.2355,4.2353,4.2352,4.2351,4.2251,4.2249,4.2247,0,0,0,0,0,0,0,0,0,0,0,0,0,4.2591,4.2657,4.2546,4.2487,4.2481,4.2448,4.2446,4.2444,4.2355,4.2353,4.2352,4.235,4.2251,4.2249,4.2246,4.2264,0,0,4.2239,4.2238,0,0,0,0,0,0,0,0,4.2595,4.2586,4.2497,4.2491,4.2484,4.2411,4.2449,4.2384,4.2355,4.2403,4.2351,4.2349,4.2305,4.2298,4.2283,4.2259,4.2255,4.2238,4.2237,4.2236,4.2235,0,0,0,0,0,0,0,4.2599,4.259,4.2507,4.2496,4.2488,4.2467,4.2455,4.2436,4.2364,4.2398,4.2392,4.2381,4.2301,4.2286,4.228,4.2253,4.2238,4.2236,4.2235,4.2234,4.2244,4.2246,0,0,0,0,0,0,4.2613,4.2595,4.251,4.2504,4.2536,4.2466,4.2453,4.2436,4.2364,4.2352,4.2383,4.2377,4.2291,4.2283,4.2276,4.2295,4.2236,4.2233,4.2232,4.2243,4.2245,4.2247,0,0,0,0,0,0,4.2616,4.2606,4.2514,4.2547,4.2534,4.2466,4.2448,4.2435,4.242,4.2352,4.2339,4.238,4.2289,4.228,4.2269,4.229,4.2232,4.223,4.224,4.2243,4.2246,4.2331,0,0,0,0,0,0,4.262,4.2608,4.2612,4.2548,4.2533,4.2507,4.2449,4.2435,4.2416,4.2408,4.2346,4.2335,4.2287,4.2273,4.2266,4.2286,4.2228,4.2238,4.2242,4.2245,4.2326,4.2336,4.2345,0,0,0,0,0,4.2624,4.2639,4.2613,4.2603,4.2537,4.2508,4.2499,4.2445,4.2418,4.2423,4.2381,4.2336,4.2289,4.2273,4.2264,4.2283,4.2237,4.2241,4.2245,4.2322,4.2334,4.2345,0,0,0,0,0,0,4.2705,4.2629,4.2599,4.2594,4.2559,4.2493,4.2497,4.2459,4.243,4.2424,4.2357,4.2344,4.2342,4.2311,4.2294,4.2299,4.2257,4.226,4.2319,4.233,4.234,4.2347,4.2226,0,0,0,0,0,4.2723,4.2706,4.264,4.2642,4.2626,4.2566,4.2551,4.2513,4.2473,4.2457,4.2413,4.2377,4.2355,4.2341,4.2316,4.2322,4.2309,4.2332,4.2341,4.2349,4.2352,4.2358,4.2368,4.226,4.226,4.226,0,0,4.2758,4.2715,4.2707,4.2657,4.2625,4.2611,4.2553,4.2538,4.2527,4.2454,4.2442,4.241,4.2366,4.2365,4.2362,4.2339,4.238,4.2355,4.2362,4.236,4.2363,4.2373,4.2382,4.2263,4.2262,4.2262,0,0,4.2815,4.278,4.2779,4.275,4.2703,4.2664,4.2665,4.2606,4.2582,4.257,4.2516,4.2503,4.2464,4.2436,4.2417,4.2472,4.2432,4.2466,4.2515,4.2522,4.253,4.2538,4.256,4.2568,4.2469,4.2469,4.2469,0,4.2865,4.284,4.2784,4.2774,4.2756,4.2692,4.2693,4.2667,4.2614,4.2604,4.2579,4.2534,4.2498,4.2492,4.2507,4.2492,4.2493,4.2471,4.2534,4.254,4.2546,4.2567,4.2575,4.2474,4.2473,4.2473,4.2472,0,4.2905,4.2889,4.2895,4.2848,4.283,4.2826,4.2771,4.276,4.2726,4.269,4.2681,4.2638,4.2606,4.2602,4.2566,4.2592,4.258,4.2546,4.2502,4.2562,4.258,4.2587,4.248,4.2479,4.2477,4.2476,0,0,4.3005,4.2933,4.2936,4.2917,4.2864,4.2851,4.2846,4.2816,4.281,4.2777,4.2773,4.2746,4.2715,4.2694,4.2656,4.2661,4.2712,4.2626,4.2625,4.2645,4.2742,4.2768,4.2778,4.2686,4.2687,4.2688,4.2746,0,4.3055,4.3041,4.2994,4.2996,4.2983,4.2926,4.2922,4.2891,4.2859,4.2845,4.2809,4.2792,4.2752,4.2739,4.2743,4.2705,4.273,4.27,4.2683,4.2683,4.2695,4.2787,4.2813,4.287,4.2753,4.2754,4.2755,0,4.3108,4.3083,4.3085,4.3038,4.303,4.3028,4.2999,4.2986,4.2951,4.2928,4.2908,4.2867,4.2861,4.2822,4.2815,4.2796,4.2787,4.2768,4.2769,4.2765,4.2722,4.2786,4.2886,4.2896,4.2765,4.2764,4.2763,0,4.3185,4.3151,4.3148,4.3133,4.3078,4.3078,4.3055,4.3019,4.3006,4.2982,4.2973,4.2949,4.2935,4.2918,4.2873,4.2848,4.2873,4.2829,4.2855,4.2857,4.2861,4.2861,4.2962,4.2855,4.2855,4.2855,4.2855,0,4.3244,4.3248,4.3183,4.3181,4.3185,4.3133,4.3138,4.311,4.308,4.3073,4.3023,4.3018,4.2958,4.2948,4.2913,4.2915,4.2909,4.2891,4.2882,4.2896,4.2898,4.2888,4.2883,4.2857,4.2857,4.2856,4.2856,0,4.3328,4.3284,4.3279,4.3229,4.3217,4.3222,4.318,4.3178,4.3146,4.3139,4.3134,4.3084,4.3069,4.3023,4.2996,4.2973,4.2987,4.2968,4.2998,4.2992,4.3022,4.302,4.3119,4.3131,4.3017,4.3018,4.3019,0,4.3368,4.337,4.3323,4.3316,4.3296,4.3284,4.3272,4.3223,4.3212,4.3177,4.318,4.3163,4.3145,4.3126,4.3087,4.3068,4.3049,4.3086,4.3046,4.3062,4.3052,4.3052,4.3054,4.3094,4.3095,4.3097,4.3098,0,4.3446,4.3426,4.341,4.3389,4.3377,4.3357,4.3335,4.3332,4.3278,4.3269,4.3255,4.3243,4.3218,4.3202,4.3178,4.3156,4.3119,4.3112,4.3117,4.313,4.3149,4.3141,4.3023,4.3109,4.3107,4.3107,4.3106,4.3106,4.351,4.3511,4.3479,4.3465,4.3444,4.3426,4.3423,4.3393,4.338,4.3357,4.333,4.332,4.3291,4.3255,4.3237,4.323,4.3209,4.3216,4.3218,4.3221,4.3228,4.3151,4.3225,4.3225,4.3225,4.3224,4.3224,0,4.3586,4.3564,4.3552,4.3525,4.3515,4.3484,4.3459,4.3453,4.3445,4.3422,4.3408,4.3395,4.3381,4.3344,4.3327,4.3329,4.3312,4.3326,4.3325,4.3321,4.3247,4.3245,4.334,4.334,4.334,4.334,4.334,4.334,4.3624,4.3625,4.3603,4.3596,4.3574,4.3565,4.3555,4.3539,4.352,4.3508,4.3497,4.3474,4.3446,4.3428,4.3415,4.3405,4.3401,4.3422,4.3406,4.3337,4.3326,4.3315,4.3313,4.3421,4.3421,4.3481,4.3481,4.3482]},{"header":{"parameterUnit":"m.s-1","parameterCategory":1,"la1":30.2991,"la2":30.254,"lo1":-89.0895,"lo2":-89.0444,"dy":0.0017,"dx":0.0017,"nx":28,"ny":28,"refTime":"2025-01-30T09:00:00:Z","depth":0,"parameterNumber":3,"parameterNumberName":"V-component_of_WINDS"},"data":[0,0,0,0,0,0,0,0,0,0,0,0,0,0,0,0,0,0,0,0,0,0,0,0,0,0,0,0,0,0,0,0,0,0,0,0,0,0,0,0,0,0,0,0,0,0,0,0,0,0,0,0,0,0,0,0,0,0,1.3742,1.3744,0,1.3888,1.3889,1.3891,1.3944,1.3943,1.3943,1.3942,1.4092,1.4097,1.4101,0,0,0,0,0,0,0,0,0,0,0,0,0,1.3513,1.3517,1.3742,1.3744,1.3746,1.3887,1.3889,1.3891,1.3944,1.3943,1.3943,1.3942,1.4091,1.4096,1.4101,0,0,0,0,0,0,0,0,0,0,0,0,0,1.363,1.3518,1.3742,1.3789,1.3795,1.3887,1.3889,1.3892,1.3944,1.3943,1.3942,1.3942,1.4089,1.4096,1.4102,1.4158,0,0,1.4123,1.4126,0,0,0,0,0,0,0,0,1.3624,1.3639,1.378,1.3786,1.3793,1.3897,1.3863,1.3981,1.3944,1.3887,1.3942,1.3941,1.4028,1.404,1.4069,1.4165,1.4172,1.4123,1.4127,1.413,1.4132,0,0,0,0,0,0,0,1.3615,1.3633,1.38,1.3782,1.379,1.3804,1.382,1.3886,1.396,1.3892,1.3896,1.3913,1.4031,1.4062,1.4072,1.4174,1.4123,1.4129,1.4133,1.4136,1.4325,1.4326,0,0,0,0,0,0,1.3599,1.3626,1.3795,1.3804,1.3705,1.3808,1.3826,1.3864,1.396,1.3973,1.3913,1.3915,1.4051,1.4065,1.4078,1.4151,1.413,1.4136,1.414,1.4324,1.4325,1.4327,0,0,0,0,0,0,1.3594,1.3614,1.3789,1.3716,1.374,1.3813,1.3855,1.3867,1.3898,1.3975,1.3989,1.3931,1.4051,1.4069,1.4138,1.4156,1.4139,1.4145,1.4323,1.4325,1.4326,1.4296,0,0,0,0,0,0,1.3587,1.3612,1.3633,1.3716,1.3743,1.3846,1.3856,1.3871,1.3909,1.3913,1.3996,1.4009,1.4052,1.4128,1.4145,1.4165,1.4151,1.4322,1.4324,1.4325,1.4295,1.4296,1.4296,0,0,0,0,0,1.3579,1.3619,1.3634,1.3654,1.3772,1.3847,1.3863,1.3911,1.3911,1.3933,1.3983,1.4006,1.4151,1.4134,1.4154,1.4177,1.4321,1.4323,1.4325,1.4295,1.4296,1.4296,0,0,0,0,0,0,1.3537,1.3631,1.3648,1.3717,1.3773,1.3856,1.3886,1.391,1.3969,1.3969,1.4027,1.4045,1.411,1.4151,1.413,1.4237,1.4238,1.4244,1.4208,1.4209,1.421,1.4199,1.4156,0,0,0,0,0,1.3535,1.3588,1.3668,1.372,1.3748,1.3812,1.3847,1.3879,1.394,1.3965,1.402,1.4079,1.4138,1.4176,1.4235,1.4301,1.432,1.4327,1.4327,1.4327,1.4332,1.4371,1.4375,1.4334,1.4334,1.4334,0,0,1.3533,1.3591,1.3621,1.3713,1.3761,1.3815,1.3832,1.3888,1.393,1.3974,1.4043,1.4085,1.4155,1.4223,1.4256,1.4259,1.4348,1.433,1.433,1.4335,1.4374,1.4377,1.4381,1.4336,1.4335,1.4335,0,0,1.3557,1.3606,1.3655,1.3703,1.3775,1.3817,1.3829,1.3908,1.3938,1.4008,1.4042,1.4092,1.4193,1.4241,1.4279,1.4321,1.4345,1.4339,1.4342,1.4379,1.4382,1.4385,1.4401,1.4406,1.4343,1.4343,1.4343,0,1.3545,1.3627,1.3677,1.3732,1.3772,1.3814,1.3865,1.3909,1.3997,1.4024,1.4025,1.4153,1.4203,1.4283,1.4294,1.4323,1.4338,1.433,1.4378,1.4381,1.4385,1.4401,1.4406,1.4342,1.4342,1.4343,1.4343,0,1.361,1.3666,1.3698,1.3781,1.3825,1.3877,1.3935,1.3974,1.4002,1.4044,1.4115,1.4177,1.4249,1.4271,1.4299,1.4356,1.4355,1.4366,1.4369,1.4387,1.4402,1.4409,1.4341,1.4341,1.4341,1.4342,0,0,1.3611,1.3721,1.3732,1.377,1.3853,1.3898,1.3953,1.4023,1.4055,1.4114,1.4162,1.4246,1.4257,1.43,1.4335,1.4367,1.4397,1.4375,1.4377,1.4377,1.4464,1.4455,1.4461,1.4413,1.4415,1.4416,1.4458,0,1.3646,1.3745,1.3791,1.387,1.3924,1.3965,1.4012,1.4069,1.411,1.4162,1.4207,1.4266,1.4276,1.4302,1.4336,1.4386,1.4415,1.4384,1.4459,1.4461,1.444,1.4469,1.446,1.4497,1.4464,1.4466,1.4466,0,1.37,1.3758,1.3842,1.3919,1.3943,1.3985,1.4053,1.4102,1.4167,1.4195,1.4243,1.4276,1.4336,1.4333,1.4417,1.4394,1.4428,1.4457,1.446,1.4469,1.4465,1.4479,1.451,1.4515,1.4476,1.4475,1.4475,0,1.3692,1.3792,1.3856,1.3887,1.3979,1.4007,1.4047,1.4111,1.415,1.421,1.4236,1.4302,1.4339,1.4389,1.444,1.4433,1.4518,1.452,1.4543,1.4542,1.456,1.4558,1.4596,1.4581,1.458,1.458,1.458,0,1.3726,1.3776,1.3854,1.3893,1.395,1.4003,1.4059,1.4101,1.4158,1.4207,1.4246,1.4291,1.4354,1.4407,1.4447,1.451,1.4526,1.4551,1.4561,1.4548,1.4544,1.457,1.4569,1.4582,1.4582,1.4581,1.4581,0,1.3728,1.3782,1.3854,1.3934,1.3956,1.3994,1.4063,1.4103,1.4146,1.4207,1.4224,1.4292,1.4356,1.4412,1.4496,1.4523,1.4589,1.4601,1.4567,1.4572,1.4592,1.459,1.4649,1.466,1.4636,1.4636,1.4636,0,1.3746,1.3786,1.387,1.3905,1.3944,1.4,1.404,1.4095,1.4135,1.4212,1.4243,1.431,1.4366,1.4467,1.4524,1.459,1.4604,1.462,1.4614,1.4599,1.4604,1.4601,1.4606,1.462,1.462,1.462,1.462,0,1.3773,1.3798,1.3854,1.392,1.3967,1.4021,1.4077,1.4104,1.4169,1.4212,1.4278,1.4322,1.4409,1.4475,1.4546,1.4588,1.4615,1.4622,1.4631,1.4617,1.4596,1.4608,1.4567,1.462,1.462,1.462,1.462,1.462,1.3784,1.3821,1.3886,1.3948,1.3996,1.4047,1.4088,1.4136,1.4192,1.4267,1.4296,1.4363,1.4428,1.4527,1.4568,1.4622,1.4626,1.4639,1.4642,1.4645,1.4643,1.4587,1.4635,1.4635,1.4635,1.4635,1.4635,0,1.3813,1.3857,1.3913,1.399,1.4039,1.406,1.4122,1.4162,1.4221,1.4278,1.4333,1.4409,1.4474,1.4536,1.4604,1.4635,1.4649,1.4651,1.465,1.4659,1.4635,1.462,1.4639,1.4639,1.4639,1.4639,1.4639,1.4639,1.3834,1.3898,1.393,1.4018,1.4063,1.4129,1.4163,1.421,1.4257,1.434,1.4394,1.4434,1.4494,1.4566,1.4627,1.4643,1.4667,1.4665,1.4685,1.4661,1.466,1.4659,1.4646,1.467,1.467,1.4705,1.4705,1.4705]}]]